DW5450 Weather Reports


time (UTC)temp
C
wind
direction
speed
KPH
gust
KPH
rain 1hr
cm
rain 24hr
cm
rain mn
cm
humidity
%
barometer
mb
20220927023027 28 112 1.6 3.2 0.00 0.00 0.00 77 1007.0
20220927021527 28 112 0.0 4.8 0.00 0.00 0.00 75 1006.8
20220927020027 28 112 1.6 4.8 0.00 0.00 0.00 74 1006.8
20220927014529 28 125 1.6 4.8 0.00 0.00 0.00 74 1006.6
20220927013035 28 111 3.2 8.0 0.00 0.00 0.00 72 1006.5
20220927011526 29 129 3.2 8.0 0.00 0.00 0.00 70 1006.4
20220927010024 30 107 3.2 8.0 0.00 0.00 0.00 69 1006.4
20220927004524 30 156 1.6 9.7 0.00 0.00 0.00 67 1006.3
20220927003024 31 137 4.8 12.9 0.00 0.00 0.00 67 1006.3
20220927001528 31 118 3.2 12.9 0.00 0.00 0.00 64 1006.3
20220927000024 32 133 4.8 11.3 0.00 0.00 0.00 62 1006.4
20220926234521 32 157 3.2 11.3 0.00 0.00 0.00 60 1006.4
20220926233019 32 150 4.8 11.3 0.00 0.00 0.00 59 1006.6
20220926231517 32 219 4.8 14.5 0.00 0.00 0.00 60 1006.7
20220926230017 32 115 4.8 12.9 0.00 0.00 0.00 62 1006.8
20220926224517 32 151 6.4 14.5 0.00 0.00 0.00 61 1006.8
20220926223019 32 131 4.8 16.1 0.00 0.00 0.00 61 1006.8
20220926221523 32 144 4.8 14.5 0.00 0.00 0.00 62 1006.8
20220926220023 32 153 6.4 17.7 0.00 0.00 0.00 61 1006.8
20220926214525 33 119 8.0 19.3 0.00 0.00 0.00 59 1006.8
20220926213015 33 144 4.8 14.5 0.00 0.00 0.00 59 1006.9
20220926211511 33 102 4.8 14.5 0.00 0.00 0.00 60 1007.0
20220926210032 33 145 6.4 14.5 0.00 0.00 0.00 59 1007.2
20220926204507 33 159 6.4 16.1 0.00 0.00 0.00 59 1007.5
20220926203006 33 177 4.8 12.9 0.00 0.00 0.00 58 1007.5
20220926201512 33 113 8.0 19.3 0.00 0.00 0.00 61 1007.7
20220926200004 33 189 6.4 14.5 0.00 0.00 0.00 59 1007.8
20220926194514 33 162 4.8 11.3 0.00 0.00 0.00 61 1007.9
20220926193006 33 113 6.4 19.3 0.00 0.00 0.00 61 1008.0
20220926191504 33 143 4.8 16.1 0.00 0.00 0.00 61 1008.1
20220926190001 33 167 6.4 17.7 0.00 0.00 0.00 63 1008.2
20220926184501 33 186 4.8 20.9 0.00 0.00 0.00 62 1008.3
20220926183101 33 146 8.0 19.3 0.00 0.00 0.00 58 1008.5
20220926181602 33 152 4.8 14.5 0.00 0.00 0.00 58 1008.6
20220926180100 34 135 4.8 14.5 0.00 0.00 0.00 59 1008.7
20220926174629 34 115 3.2 14.5 0.00 0.00 0.00 60 1008.8
20220926173104 34 142 4.8 8.0 0.00 0.00 0.00 62 1008.9
20220926171606 33 343 1.6 4.8 0.00 0.00 0.00 60 1008.9
20220926170049 32 323 1.6 4.8 0.00 0.00 0.00 63 1009.0
20220926164558 31 329 0.0 3.2 0.00 0.00 0.00 68 1009.0
20220926163044 31 329 1.6 6.4 0.00 0.00 0.00 71 1009.1
20220926161544 30 345 1.6 6.4 0.00 0.00 0.00 74 1009.1
20220926160033 28 311 0.0 4.8 0.00 0.00 0.00 77 1008.9
20220926154542 28 335 1.6 8.0 0.00 0.00 0.00 79 1008.9
20220926153028 27 322 1.6 8.0 0.00 0.00 0.00 82 1008.9
20220926151529 26 9 1.6 8.0 0.00 0.00 0.00 84 1008.9
20220926150021 25 319 3.2 8.0 0.00 0.00 0.00 85 1008.9
20220926144532 25 317 1.6 6.4 0.00 0.00 0.00 86 1008.7
20220926143021 25 298 1.6 9.7 0.00 0.00 0.00 87 1008.7
20220926141519 24 319 0.0 9.7 0.00 0.00 0.00 87 1008.5
20220926140019 23 312 4.8 9.7 0.00 0.00 0.00 88 1008.2
20220926134518 23 320 3.2 8.0 0.00 0.00 0.00 88 1008.0
20220926133018 23 305 1.6 6.4 0.00 0.00 0.00 88 1008.0
20220926131516 23 316 3.2 9.7 0.00 0.00 0.00 88 1007.9
20220926130018 23 316 1.6 6.4 0.00 0.00 0.00 88 1007.9
20220926124515 23 300 3.2 8.0 0.00 0.00 0.00 88 1007.9
20220926123030 23 311 0.0 4.8 0.00 0.00 0.00 88 1007.8
20220926121519 23 314 1.6 6.4 0.00 0.00 0.00 88 1007.8
20220926120015 23 300 1.6 6.4 0.00 0.00 0.00 88 1007.7
20220926114511 24 307 3.2 6.4 0.00 0.00 0.00 87 1007.6
20220926113010 24 309 0.0 3.2 0.00 0.00 0.00 87 1007.5
20220926111508 24 309 1.6 6.4 0.00 0.00 0.00 87 1007.5
20220926110009 25 311 0.0 6.4 0.00 0.00 0.00 87 1007.5
20220926104508 25 310 0.0 3.2 0.00 0.00 0.00 86 1007.5
20220926103007 25 304 3.2 6.4 0.00 0.00 0.00 87 1007.4
20220926101505 25 306 3.2 6.4 0.00 0.00 0.00 87 1007.6
20220926100004 25 319 3.2 6.4 0.00 0.00 0.00 87 1007.7
20220926094503 24 315 1.6 4.8 0.00 0.00 0.00 87 1007.8
20220926093003 24 311 0.0 4.8 0.00 0.00 0.00 87 1007.9
20220926091601 25 307 0.0 4.8 0.00 0.00 0.00 87 1008.0
20220926090058 25 308 0.0 4.8 0.00 0.00 0.00 86 1008.2
20220926084608 25 319 0.0 4.8 0.00 0.00 0.00 86 1008.3
20220926083140 25 313 0.0 6.4 0.00 0.00 0.00 86 1008.4
20220926081610 25 333 1.6 4.8 0.00 0.00 0.00 86 1008.3
20220926080058 25 312 0.0 6.4 0.00 0.00 0.00 86 1008.5
20220926074603 25 315 1.6 4.8 0.00 0.00 0.00 85 1008.6
20220926073101 25 322 1.6 4.8 0.00 0.00 0.00 85 1008.7
20220926071546 25 322 0.0 1.6 0.00 0.00 0.00 84 1008.8
20220926070044 26 322 0.0 3.2 0.00 0.00 0.00 84 1009.0
20220926064543 26 322 0.0 3.2 0.00 0.00 0.00 84 1009.1
20220926063043 26 322 1.6 3.2 0.00 0.00 0.00 83 1009.1
20220926061540 26 323 1.6 4.8 0.00 0.00 0.00 83 1009.1
20220926060048 26 326 0.0 3.2 0.00 0.00 0.00 82 1009.1
20220926054603 26 326 1.6 4.8 0.00 0.00 0.00 82 1009.1
20220926053038 26 326 0.0 4.8 0.00 0.00 0.00 82 1009.2
20220926051551 26 303 0.0 4.8 0.00 0.00 0.00 81 1009.1
20220926050052 26 299 1.6 3.2 0.00 0.00 0.00 81 1009.0
20220926044546 26 296 0.0 3.2 0.00 0.00 0.00 80 1009.0
20220926043035 26 286 0.0 4.8 0.00 0.00 0.00 80 1009.0
20220926041537 27 146 0.0 3.2 0.00 0.00 0.00 80 1008.9
20220926040042 27 146 0.0 3.2 0.00 0.00 0.00 80 1008.9
20220926034534 27 146 0.0 3.2 0.00 0.00 0.00 79 1008.8
20220926033036 27 146 0.0 3.2 0.00 0.00 0.00 79 1008.7
20220926031533 27 146 0.0 1.6 0.00 0.00 0.00 78 1008.5
20220926030040 27 146 0.0 3.2 0.00 0.00 0.00 78 1008.4
20220926024543 27 146 0.0 3.2 0.00 0.00 0.00 79 1008.3